{"data":{"norad_id":52134,"intl_designator":"2022-029AY","name":"STARLINK-3721","alt_names":[],"object_type":"PAYLOAD","status":"ACTIVE","operator":null,"country":"US","launch_date":"2022-03-19","launch_site_code":"AFETR","launch_vehicle":null,"mission":null,"orbit_class":"UNKNOWN","rcs_meters":null,"size_class":null,"mass_kg":null,"dimensions":null,"purposes":["comms"],"wikipedia_slug":null,"has_3d_model":false,"image_url":null,"decayed_at":null,"tle_current":{"epoch":"2026-05-25T02:41:58.813728Z","epoch_age_seconds":59178,"freshness":"FRESH","line1":"1 52134U 22029AY  26145.11248627 -.00000496  00000+0 -13047-4 0  9998","line2":"2 52134  53.2136  86.0460 0001439  63.7100 296.4040 15.08839790232478","mean_motion":15.0883979,"eccentricity":0.0001439,"inclination_deg":53.2136,"raan_deg":86.046,"arg_perigee_deg":63.71,"mean_anomaly_deg":296.404,"bstar":-1.3047e-5,"rev_number":23247,"period_min":95.437567960744,"perigee_km":538.74854776983,"apogee_km":540.73951393051,"semimajor_km":6917.8810308502,"source":"CELESTRAK","updated_at":"2026-05-25T13:38:17.078051Z"}}}